Regional Weather Roundup
Issued by NWS

Home | Current Version | Previous Version | Text Only | Print | Product List | Glossary Off
Versions: 1 2 3 4 5 6 7 8 9 10 11 12 13 14 15 16 17 18 19 20 21 22 23 24 25 26 27 28 29 30 31 32 33 34 35 36 37 38 39 40 41 42 43 44 45 46 47 48 49 50

000
ASUS43 KLOT 291500
RWRIL

ILLINOIS REGIONAL WEATHER ROUNDUP
NATIONAL WEATHER SERVICE CHICAGO/ROMEOVILLE IL
900 AM CST THU JAN 29 2015

NOTE: "FAIR" INDICATES FEW OR NO CLOUDS BELOW 12,000 FEET WITH NO
SIGNIFICANT WEATHER AND/OR OBSTRUCTIONS TO VISIBILITY.

* THESE STATIONS ARE NOT UNDER NWS QUALITY CONTROL. THEY ALSO MAY NOT
  REPORT WEATHER SUCH AS PRECIPITATION OR FOG.

ILZ001-002-007-009-015-016-024-291600-
NORTHWEST ILLINOIS

CITY           SKY/WX    TMP DP  RH WIND       PRES   REMARKS
MOLINE         CLOUDY    35  28  75 NW14G22   30.00R WCI  26
STERLING*      CLOUDY    36  28  75 NW16      29.93R WCI  26
$$

ILZ003-004-008-010-011-017-018-291600-
NORTH CENTRAL ILLINOIS

CITY           SKY/WX    TMP DP  RH WIND       PRES   REMARKS
ROCKFORD       CLOUDY    34  27  75 NW20G30   29.92R WCI  23
$$

ILZ005-006-012>014-019>023-291600-
NORTHEAST ILLINOIS

CITY           SKY/WX    TMP DP  RH WIND       PRES   REMARKS
CHICAGO-OHARE  LGT SNOW  32  29  88 NW21G26   29.81R FOG     WCI  20
CHICAGO-MIDWAY LGT SNOW  36  29  75 NW21      29.81R FOG     WCI  25
AURORA         CLOUDY    34  28  79 NW25G32   29.85R HAZE    WCI  21
WAUKEGAN       CLOUDY    32  27  81 NW13G25   29.82R HAZE    WCI  22
DUPAGE AIRPORT LGT RAIN  34  28  79 NW21      29.83R WCI  22
WHEELING       CLOUDY    33  28  81 NW13G25   29.84R HAZE    WCI  24
NORTHERLY ISL    N/A     35  28  76 NW9         N/A  WCI  28
$$

LMZ740>746-291600-
SOUTHERN LAKE MICHIGAN

STATION/POSITION SKY/WX   TEMP    WIND        PRES    VSBY  WAVE
                          AIR SEA DIR/SP/G                  HT/PER
                          (F)     (DEG/KT/KT) (MB)    (MI)  (FT/S)
WAUKEGAN HARBOR            33     320/ 17/ 28   N/A
HARRISON CRIB              34     320/ 14/ 17   N/A
BURNHAM HARBOR             35     330/ 16/ 20   N/A
CALUMET HARBOR             37     300/ 14/ 20   N/A
MICHIGAN CITY              34     230/  9/ 10   N/A
$$

ILZ025>027-034>036-040-047-049-050-058-095>099-291600-
WEST-CENTRAL ILLINOIS

CITY           SKY/WX    TMP DP  RH WIND       PRES   REMARKS
QUINCY         CLOUDY    37  29  72 NW16      30.07R WCI  28
$$

ILZ028>032-037-038-041>044-048-051>054-059>061-291600-
CENTRAL ILLINOIS

CITY           SKY/WX    TMP DP  RH WIND       PRES   REMARKS
DECATUR        CLOUDY    37  32  82 NW20G28   29.95R HAZE    WCI  27
PEORIA         CLOUDY    37  30  75 NW14G25   29.97R WCI  28
SPRINGFIELD    CLOUDY    38  31  76 NW22G32   29.99R WCI  27
TAYLORVILLE    NOT AVBL
$$

ILZ033-039-045-046-055>057-062-063-291600-
EAST-CENTRAL ILLINOIS

CITY           SKY/WX    TMP DP  RH WIND       PRES   REMARKS
CHAMPAIGN      CLOUDY    36  32  85 NW21      29.88R FOG     WCI  25
MATTOON        CLOUDY    37  32  82 NW25G33   29.92R HAZE    WCI  25
$$

ILZ079-100>102-291600-
SOUTHWEST ILLINOIS

CITY           SKY/WX    TMP DP  RH WIND       PRES   REMARKS
BELLEVILLE     CLOUDY    41  34  77 NW14G24   30.04R
CAHOKIA*       CLOUDY    41  32  70 W21G31    30.07R
$$

ILZ064>066-069>071-074>076-080>082-084>086-088>090-092>094-291600-
SOUTH-CENTRAL ILLINOIS

CITY           SKY/WX    TMP DP  RH WIND       PRES   REMARKS
CARBONDALE     CLOUDY    46  36  68 NW20G28   30.02R
MARION         CLOUDY    48  37  66 NW14G25   30.01R
MT. VERNON     CLOUDY    45  34  65 NW10G21   30.00R
$$

ILZ067-068-072-073-078-083-087-091-291600-
SOUTHEAST ILLINOIS

CITY           SKY/WX    TMP DP  RH WIND       PRES   REMARKS
LAWRENCEVILLE  CLOUDY    44  37  76 W23G41    29.93R
$$

ABBREVIATIONS USED IN REMARKS
   TC - TEMPERATURE IN CELSIUS
  WCI - WIND CHILL INDEX
   HX - HEAT INDEX
  VSB - VISIBILITY
$$



USA.gov is the U.S. government's official web portal to all federal, state and local government web resources and services.